Regional Weather Roundup
Issued by NWS Portland, ME

Current Version | Previous Version | Text Only | Print | Product List | Glossary Off
Versions: 1 2 3 4 5 6 7 8 9 10 11 12 13 14 15 16 17 18 19 20 21 22 23 24 25 26 27 28 29 30 31 32 33 34 35 36 37 38 39 40 41 42 43 44 45 46 47 48 49 50
000 ASUS41 KGYX 180710 RWRGYX WEATHER ROUNDUP FOR MAINE AND NEW HAMPSHIRE NATIONAL WEATHER SERVICE GRAY ME 300 AM EDT WED OCT 18 2017 MEZ002-005-006-010-012-015-018-020-021-024-026-027-029-180800- MAINE CITY SKY/WX TMP DP RH WIND PRES REMARKS PORTLAND CLOUDY 43 32 65 S3 30.14F SANFORD PTCLDY 41 34 76 S6 30.15F BAR HARBOR CLOUDY 53 40 61 SW8 30.09F WISCASSET CLOUDY 49 35 58 SW3 30.12F ROCKLAND CLOUDY 51 39 63 SW5 30.10F FRYEBURG PTCLDY 45 34 65 W5 30.11F LEWISTONAUBURN CLOUDY 45 34 65 S3 30.11F AUGUSTA CLOUDY 45 32 60 SW6 30.09F WATERVILLE CLOUDY 45 35 68 S3 30.06F BANGOR CLOUDY 49 36 61 S8 30.06F GREENVILLE N/A 43 33 68 S5 30.00S MILLINOCKET PTCLDY 42 36 79 E6 30.03F HOULTON CLOUDY 45 35 68 SW9 29.98F PRESQUE ISLE PTCLDY 45 34 65 VRB7 29.95F FRENCHVILLE CLOUDY 43 32 65 S8 29.89F CARIBOU MOCLDY 46 33 60 SW8 29.92S $$ NHZ002-005-008-009-011-012-014-180800- NEW HAMPSHIRE CITY SKY/WX TMP DP RH WIND PRES REMARKS PORTSMOUTH CLEAR 44 34 67 SW7 30.15F ROCHESTER CLEAR 38 32 79 CALM 30.14F NASHUA CLEAR 39 36 89 CALM 30.18F MANCHESTER CLEAR 45 35 68 S3 30.16S CONCORD CLEAR 40 34 79 S9 30.16F LACONIA CLEAR 43 32 65 W5 30.15F PLYMOUTH FAIR 31 30 99 CALM 30.16S BERLIN PTCLDY 42 34 73 CALM 30.09R WHITEFIELD MOCLDY 38 36 92 NW3 30.11S JAFFREY CLEAR 44 37 76 S10 30.18S KEENE CLEAR 32 31 96 CALM 30.20S LEBANON CLEAR 40 33 76 S5 30.14F MT WASHINGTON CLOUDY 28 27 93 W60 N/A WCI 8 $$ VTZ005-007-008-180800- VERMONT CITY SKY/WX TMP DP RH WIND PRES REMARKS ST JOHNSBURY N/A 47 31 53 MISG 30.10R MONTPELIER PTCLDY 49 36 61 W5 30.15R BURLINGTON CLOUDY 52 34 50 S14 30.11R $$ MAZ007-012-024-CTZ003-RIZ002-NYZ038-NYZ072-180800- SOUTHERN NEW ENGLAND AND NY CITY SKY/WX TMP DP RH WIND PRES REMARKS BOSTON CLEAR 49 40 71 SW15 30.20F WORCESTER CLEAR 44 34 67 W15 30.18F NANTUCKET CLEAR 51 44 77 W9 30.26S PROVIDENCE CLEAR 50 43 77 SW8 30.23F HARTFORD PTCLDY 44 39 82 S8 30.22F ALBANY PTCLDY 45 36 70 S3 30.21R NEW YORK CITY CLEAR 54 36 50 W9 30.28S $$ ANZ081-ANZ082-ANZ150-NHZ014-MEZ023>029-180800- COASTAL MARINE OBSERVATIONS STATION/POSITION TIME TEMP WIND PRES WAVE AIR SEA DIR/SP/G HT/PER (UTC) (F) (DEG/KT/KT) (MB) (FT/S) MOUNT DESERT ROC 0700 54 210/ 25/ 27 1019.5F MATINICUS ROCK 0600 54 230/ 26/ 29 1019.8F ISLE OF SHOALS 0600 50 230/ 24/ 26 1021.0F JEFFREYS LEDGE 0636 58 N/A 5/ 5 CASHES LEDGE BUO 0550 54 55 1021.1 5/ 5 GEORGES BANK BUO 0550 53 62 1023.7 5/ 6 $$ .............KEY.............. WCI - WIND CHILL TC - TEMPERATURE IN CELSIUS VSB - VISIBILITY IN MILES HX - HEAT INDEX FAIR- INDICATES FEW OR NO CLOUDS BELOW 12,000 FT, WITH NO SIGNIFICANT WEATHER AND/OR OBSTRUCTIONS TO VISIBILITY.

USA.gov is the U.S. government's official web portal to all federal, state and local government web resources and services.